星链-32113 (STARLINK-32113)

导读 | 豆包AI

STARLINK-32113是美国SpaceX公司星链星座的一颗第二代卫星,于北京时间2024年7月28日,由猎鹰9号火箭从加州范登堡发射场发射升空,属于Starlink Group 9-4任务批次。它是为填补此前发射失败损失的直连手机卫星而部署,进入初始轨道后经爬升测试,将为全球用户提供低延迟卫星互联网服务,此次发射也让SpaceX累计发射星链总数突破6800颗。

基本信息
目录编号:
60282
目录名称:
STARLINK-32113
国际标识:
2024-132E
轨道中心:
EARTH
卫星名称:
星链-32113 (STARLINK-32113)
卫星全名:
星链-32113 (STARLINK-32113)
卫星状态:
在轨 (已飞行595 天)
发射日期:
2024-07-28 UTC
国别 :
美国 (US)
星等 :
--
轨道信息
数据来源 国际轨道数据
星历时间: 2026-03-15T12:27:59+0800
10小时前
查看轨道信息
半长轴: 6853.469km
偏心率: 0.0001183
轨道倾角: 53.162°
近地点辐角 76.796°
升交点赤经 26.778°
平近点角 283.317°
近地点: 474.521km
远地点: 476.143km
周期: 94.108分钟
每日圈数: 15.301611
详细信息
卫星平台:
Starlink v2.0 mini
运营商:
太空探索技术公司
运营商所在国:
美国
制造商(研发单位):
太空探索技术公司
制造商所在国:
美国
使用方式:
暂无
卫星简介
星链(Starlink)计划是由太空探索技术公司(SpaceX)提出的一个巨型低轨卫星互联网星座项目,计划在2019年至2024年间在太空搭建由约1.2万颗卫星组成的“星链”网络,其中1584颗将部署在地球上空550千米处的近地轨道,并从2020年开始工作。该卫星仍在工作。
2D轨道图
3D轨道图
轨道高度分析图
轨道倾角分析图
轨道综合分析图
查看轨道综合分析图